| time (UTC) | temp F | wind direction | speed MPH | gust MPH | rain 1hr in | rain 24hr in | rain mn in | humidity % | barometer mb |
| 20260505034546 | 56 | 164 | 2.0 | 10.0 | 0.00 | 0.00 | 0.00 | 84 | 1010.7 |
| 20260505034501 | 56 | 223 | 1.0 | 10.0 | 0.00 | 0.00 | 0.00 | 84 | 1011.1 |
| 20260505033646 | 56 | 202 | 2.0 | 9.0 | 0.00 | 0.00 | 0.00 | 84 | 1010.5 |
| 20260505033116 | 56 | 158 | 3.0 | 8.0 | 0.00 | 0.00 | 0.00 | 84 | 1010.9 |
| 20260505032746 | 57 | 217 | 2.0 | 7.0 | 0.00 | 0.00 | 0.00 | 83 | 1010.4 |
| 20260505031846 | 57 | 137 | 2.0 | 11.0 | 0.00 | 0.00 | 0.00 | 82 | 1010.4 |
| 20260505031501 | 57 | 188 | 2.0 | 11.0 | 0.00 | 0.00 | 0.00 | 82 | 1010.7 |
| 20260505030946 | 58 | 117 | 2.0 | 12.0 | 0.00 | 0.00 | 0.00 | 81 | 1010.3 |
| 20260505030046 | 59 | 271 | 3.0 | 12.0 | 0.00 | 0.00 | 0.00 | 80 | 1010.2 |
| 20260505025147 | 60 | 236 | 2.0 | 11.0 | 0.00 | 0.00 | 0.00 | 78 | 1010.1 |
| 20260505024503 | 60 | 5 | 2.0 | 8.0 | 0.00 | 0.00 | 0.00 | 77 | 1010.5 |
| 20260505023346 | 62 | 204 | 2.0 | 11.0 | 0.00 | 0.00 | 0.00 | 74 | 1010.0 |
| 20260505023108 | 62 | 139 | 2.0 | 10.0 | 0.00 | 0.00 | 0.00 | 74 | 1010.4 |
| 20260505022446 | 63 | 238 | 2.0 | 10.0 | 0.00 | 0.00 | 0.00 | 72 | 1010.0 |
| 20260505021546 | 64 | 225 | 2.0 | 11.0 | 0.00 | 0.00 | 0.00 | 70 | 1010.0 |
| 20260505021501 | 64 | 314 | 2.0 | 11.0 | 0.00 | 0.00 | 0.00 | 69 | 1010.4 |
| 20260505020646 | 66 | 299 | 2.0 | 10.0 | 0.00 | 0.00 | 0.00 | 67 | 1009.9 |
| 20260505015746 | 67 | 270 | 2.0 | 10.0 | 0.00 | 0.00 | 0.00 | 65 | 1009.9 |
| 20260505014846 | 68 | 326 | 2.0 | 6.0 | 0.00 | 0.00 | 0.00 | 65 | 1009.7 |
| 20260505014503 | 68 | 23 | 2.0 | 6.0 | 0.00 | 0.00 | 0.00 | 64 | 1010.1 |
| 20260505013946 | 69 | 269 | 2.0 | 11.0 | 0.00 | 0.00 | 0.00 | 63 | 1009.7 |
| 20260505013047 | 69 | 236 | 2.0 | 8.0 | 0.00 | 0.00 | 0.00 | 62 | 1009.8 |
| 20260505013002 | 69 | 224 | 2.0 | 8.0 | 0.00 | 0.00 | 0.00 | 62 | 1010.2 |
| 20260505012146 | 70 | 188 | 2.0 | 11.0 | 0.00 | 0.00 | 0.00 | 60 | 1009.7 |
| 20260505011603 | 69 | 273 | 1.0 | 11.0 | 0.00 | 0.00 | 0.00 | 60 | 1010.3 |
| 20260505011247 | 70 | 251 | 3.0 | 11.0 | 0.00 | 0.00 | 0.00 | 60 | 1009.7 |
| 20260505010346 | 71 | 267 | 3.0 | 10.0 | 0.00 | 0.00 | 0.00 | 57 | 1009.8 |
| 20260505010001 | 71 | 34 | 3.0 | 11.0 | 0.00 | 0.00 | 0.00 | 56 | 1010.2 |
| 20260505005446 | 71 | 286 | 3.0 | 11.0 | 0.00 | 0.00 | 0.00 | 56 | 1009.9 |
| 20260505004602 | 72 | 120 | 2.0 | 8.0 | 0.00 | 0.00 | 0.00 | 55 | 1010.2 |
| 20260505004546 | 72 | 232 | 3.0 | 8.0 | 0.00 | 0.00 | 0.00 | 55 | 1009.7 |
| 20260505003646 | 73 | 216 | 3.0 | 11.0 | 0.00 | 0.00 | 0.00 | 54 | 1009.6 |
| 20260505003002 | 73 | 325 | 3.0 | 8.0 | 0.00 | 0.00 | 0.00 | 53 | 1009.9 |
| 20260505002746 | 74 | 191 | 3.0 | 8.0 | 0.00 | 0.00 | 0.00 | 54 | 1009.5 |
| 20260505001846 | 74 | 204 | 3.0 | 10.0 | 0.00 | 0.00 | 0.00 | 54 | 1009.5 |
| 20260505001601 | 73 | 273 | 3.0 | 10.0 | 0.00 | 0.00 | 0.00 | 53 | 1010.0 |
| 20260505000946 | 74 | 289 | 2.0 | 8.0 | 0.00 | 0.00 | 0.00 | 53 | 1009.6 |
| 20260505000002 | 75 | 333 | 2.0 | 7.0 | 0.00 | 0.00 | 0.00 | 52 | 1009.9 |
| 20260504235147 | 75 | 274 | 2.0 | 7.0 | 0.00 | 0.00 | 0.00 | 52 | 1009.4 |
| 20260504234629 | 75 | 276 | 1.0 | 8.0 | 0.00 | 0.00 | 0.00 | 51 | 1009.8 |
| 20260504234246 | 75 | 273 | 3.0 | 8.0 | 0.00 | 0.00 | 0.00 | 51 | 1009.4 |
| 20260504233346 | 75 | 226 | 3.0 | 10.0 | 0.00 | 0.00 | 0.00 | 50 | 1009.5 |
| 20260504233001 | 75 | 343 | 2.0 | 11.0 | 0.00 | 0.00 | 0.00 | 51 | 1009.8 |
| 20260504232446 | 76 | 156 | 3.0 | 11.0 | 0.00 | 0.00 | 0.00 | 50 | 1009.3 |
| 20260504231606 | 75 | 186 | 2.0 | 9.0 | 0.00 | 0.00 | 0.00 | 50 | 1009.8 |
| 20260504231546 | 76 | 167 | 4.0 | 8.0 | 0.00 | 0.00 | 0.00 | 51 | 1009.4 |
| 20260504230646 | 75 | 122 | 3.0 | 13.0 | 0.00 | 0.00 | 0.00 | 50 | 1009.5 |
| 20260504230002 | 75 | 95 | 2.0 | 10.0 | 0.00 | 0.00 | 0.00 | 50 | 1009.8 |
| 20260504225746 | 76 | 98 | 3.0 | 7.0 | 0.00 | 0.00 | 0.00 | 50 | 1009.5 |
| 20260504224608 | 76 | 19 | 3.0 | 12.0 | 0.00 | 0.00 | 0.00 | 53 | 1010.1 |
| 20260504223946 | 76 | 89 | 4.0 | 10.0 | 0.00 | 0.00 | 0.00 | 53 | 1009.7 |
| 20260504223003 | 76 | 12 | 3.0 | 8.0 | 0.00 | 0.00 | 0.00 | 53 | 1010.0 |
| 20260504221606 | 76 | 96 | 2.0 | 10.0 | 0.00 | 0.00 | 0.00 | 53 | 1010.1 |
| 20260504221246 | 76 | 92 | 3.0 | 10.0 | 0.00 | 0.00 | 0.00 | 55 | 1009.7 |
| 20260504220346 | 76 | 84 | 2.0 | 9.0 | 0.00 | 0.00 | 0.00 | 54 | 1009.9 |
| 20260504220001 | 76 | 101 | 2.0 | 7.0 | 0.00 | 0.00 | 0.00 | 53 | 1010.4 |
| 20260504215446 | 77 | 83 | 3.0 | 7.0 | 0.00 | 0.00 | 0.00 | 53 | 1010.1 |
| 20260504214605 | 76 | 79 | 3.0 | 10.0 | 0.00 | 0.00 | 0.00 | 56 | 1010.6 |
| 20260504214546 | 76 | 48 | 3.0 | 9.0 | 0.00 | 0.00 | 0.00 | 56 | 1010.1 |
| 20260504213646 | 76 | 85 | 2.0 | 8.0 | 0.00 | 0.00 | 0.00 | 58 | 1010.0 |
| 20260504213005 | 76 | 60 | 3.0 | 8.0 | 0.00 | 0.00 | 0.00 | 57 | 1010.4 |
| 20260504212746 | 76 | 72 | 3.0 | 8.0 | 0.00 | 0.00 | 0.00 | 59 | 1009.9 |
| 20260504211846 | 76 | 102 | 3.0 | 8.0 | 0.00 | 0.00 | 0.00 | 57 | 1009.9 |
| 20260504211606 | 75 | 133 | 3.0 | 8.0 | 0.00 | 0.00 | 0.00 | 57 | 1010.4 |
| 20260504210946 | 75 | 75 | 3.0 | 8.0 | 0.00 | 0.00 | 0.00 | 59 | 1010.2 |
| 20260504210046 | 75 | 98 | 3.0 | 8.0 | 0.00 | 0.00 | 0.00 | 60 | 1010.2 |
| 20260504210002 | 74 | 336 | 2.0 | 8.0 | 0.00 | 0.00 | 0.00 | 60 | 1010.5 |
| 20260504205146 | 74 | 74 | 3.0 | 10.0 | 0.00 | 0.00 | 0.00 | 61 | 1010.2 |
| 20260504204639 | 74 | 49 | 2.0 | 8.0 | 0.00 | 0.00 | 0.00 | 63 | 1010.7 |
| 20260504204247 | 75 | 74 | 2.0 | 7.0 | 0.00 | 0.00 | 0.00 | 61 | 1010.4 |
| 20260504203001 | 74 | 105 | 2.0 | 6.0 | 0.00 | 0.00 | 0.00 | 62 | 1010.8 |
| 20260504202446 | 74 | 96 | 2.0 | 8.0 | 0.00 | 0.00 | 0.00 | 63 | 1010.4 |
| 20260504201602 | 74 | 111 | 1.0 | 7.0 | 0.00 | 0.00 | 0.00 | 63 | 1010.9 |
| 20260504201546 | 74 | 88 | 2.0 | 6.0 | 0.00 | 0.00 | 0.00 | 63 | 1010.5 |
| 20260504200647 | 73 | 95 | 2.0 | 6.0 | 0.00 | 0.00 | 0.00 | 64 | 1010.6 |
| 20260504200006 | 72 | 82 | 2.0 | 7.0 | 0.00 | 0.00 | 0.00 | 66 | 1011.0 |
| 20260504195746 | 72 | 94 | 2.0 | 6.0 | 0.00 | 0.00 | 0.00 | 65 | 1010.6 |
| 20260504194847 | 72 | 81 | 2.0 | 5.0 | 0.00 | 0.00 | 0.00 | 66 | 1010.6 |
| 20260504194601 | 72 | 47 | 2.0 | 5.0 | 0.00 | 0.00 | 0.00 | 65 | 1011.0 |
| 20260504193947 | 72 | 93 | 3.0 | 8.0 | 0.00 | 0.00 | 0.00 | 66 | 1010.5 |
| 20260504193046 | 71 | 98 | 2.0 | 7.0 | 0.00 | 0.00 | 0.00 | 66 | 1010.7 |
| 20260504193004 | 71 | 94 | 2.0 | 7.0 | 0.00 | 0.00 | 0.00 | 67 | 1011.1 |
| 20260504192146 | 71 | 91 | 3.0 | 8.0 | 0.00 | 0.00 | 0.00 | 66 | 1010.8 |
| 20260504191602 | 70 | 105 | 2.0 | 8.0 | 0.00 | 0.00 | 0.00 | 70 | 1011.5 |
| 20260504191247 | 70 | 100 | 3.0 | 9.0 | 0.00 | 0.00 | 0.00 | 70 | 1011.0 |
| 20260504190346 | 70 | 89 | 2.0 | 6.0 | 0.00 | 0.00 | 0.00 | 69 | 1011.1 |
| 20260504190008 | 69 | 93 | 1.0 | 6.0 | 0.00 | 0.00 | 0.00 | 69 | 1011.5 |
| 20260504184606 | 68 | 61 | 2.0 | 6.0 | 0.00 | 0.00 | 0.00 | 72 | 1011.5 |
| 20260504184546 | 69 | 30 | 3.0 | 6.0 | 0.00 | 0.00 | 0.00 | 70 | 1011.1 |
| 20260504183647 | 67 | 78 | 3.0 | 7.0 | 0.00 | 0.00 | 0.00 | 74 | 1011.2 |
| 20260504183002 | 66 | 122 | 2.0 | 7.0 | 0.00 | 0.00 | 0.00 | 73 | 1011.5 |
| 20260504182746 | 67 | 80 | 1.0 | 7.0 | 0.00 | 0.00 | 0.00 | 72 | 1011.0 |
| 20260504181503 | 65 | 77 | 1.0 | 5.0 | 0.00 | 0.00 | 0.00 | 75 | 1011.5 |
| 20260504180946 | 65 | 99 | 1.0 | 6.0 | 0.00 | 0.00 | 0.00 | 78 | 1011.1 |
| 20260504180046 | 64 | 91 | 2.0 | 6.0 | 0.00 | 0.00 | 0.00 | 80 | 1011.2 |
| 20260504175146 | 63 | 91 | 2.0 | 6.0 | 0.00 | 0.00 | 0.00 | 80 | 1011.2 |
| 20260504174502 | 62 | 68 | 0.0 | 6.0 | 0.00 | 0.00 | 0.00 | 80 | 1011.5 |
| 20260504174246 | 63 | 69 | 2.0 | 6.0 | 0.00 | 0.00 | 0.00 | 79 | 1011.1 |
| 20260504173346 | 62 | 64 | 1.0 | 6.0 | 0.00 | 0.00 | 0.00 | 79 | 1011.1 |
| 20260504173102 | 62 | 1 | 1.0 | 4.0 | 0.00 | 0.00 | 0.00 | 80 | 1011.5 |
| 20260504172446 | 62 | 18 | 2.0 | 5.0 | 0.00 | 0.00 | 0.00 | 80 | 1011.1 |
| 20260504171547 | 62 | 344 | 2.0 | 8.0 | 0.00 | 0.00 | 0.00 | 81 | 1011.0 |
| 20260504171505 | 61 | 331 | 2.0 | 8.0 | 0.00 | 0.00 | 0.00 | 82 | 1011.5 |
| 20260504170647 | 61 | 356 | 2.0 | 6.0 | 0.00 | 0.00 | 0.00 | 82 | 1011.1 |
| 20260504170103 | 60 | 307 | 2.0 | 5.0 | 0.00 | 0.00 | 0.00 | 81 | 1011.4 |
| 20260504160346 | 58 | 12 | 2.0 | 7.0 | 0.00 | 0.00 | 0.00 | 85 | 1010.9 |
| 20260504150947 | 56 | 7 | 1.0 | 5.0 | 0.00 | 0.00 | 0.00 | 89 | 1010.3 |
| 20260504150106 | 55 | 357 | 1.0 | 6.0 | 0.00 | 0.00 | 0.00 | 90 | 1010.7 |
| 20260504140647 | 49 | 0 | 0.0 | 0.0 | 0.00 | 0.00 | 0.00 | 100 | 1009.7 |
| 20260504130347 | 45 | 0 | 0.0 | 0.0 | 0.00 | 0.00 | 0.00 | 96 | 1009.0 |
| 20260504120107 | 45 | 124 | 0.0 | 0.0 | 0.00 | 0.00 | 0.00 | 94 | 1009.1 |
| 20260504110647 | 47 | 0 | 0.0 | 0.0 | 0.00 | 0.00 | 0.00 | 94 | 1008.3 |
| 20260504110104 | 47 | 124 | 0.0 | 0.0 | 0.00 | 0.00 | 0.00 | 94 | 1008.8 |
| 20260504100347 | 49 | 0 | 0.0 | 0.0 | 0.00 | 0.00 | 0.00 | 92 | 1008.4 |
| 20260504100103 | 48 | 124 | 0.0 | 0.0 | 0.00 | 0.00 | 0.00 | 92 | 1008.8 |
| 20260504090105 | 51 | 124 | 0.0 | 0.0 | 0.00 | 0.00 | 0.00 | 88 | 1008.7 |
| 20260504081547 | 53 | 0 | 0.0 | 0.0 | 0.00 | 0.00 | 0.00 | 87 | 1008.3 |
| 20260504081502 | 53 | 124 | 0.0 | 0.0 | 0.00 | 0.00 | 0.00 | 87 | 1008.6 |
| 20260504070347 | 56 | 0 | 0.0 | 0.0 | 0.00 | 0.00 | 0.00 | 81 | 1008.1 |
| 20260504070107 | 56 | 124 | 0.0 | 0.0 | 0.00 | 0.00 | 0.00 | 81 | 1008.5 |
| 20260504050002 | 63 | 124 | 0.0 | 0.0 | 0.00 | 0.00 | 0.00 | 69 | 1008.6 |
| 20260504045747 | 63 | 0 | 0.0 | 0.0 | 0.00 | 0.00 | 0.00 | 68 | 1008.2 |
| 20260504044605 | 64 | 124 | 0.0 | 0.0 | 0.00 | 0.00 | 0.00 | 67 | 1008.7 |
| 20260504043947 | 64 | 0 | 0.0 | 0.0 | 0.00 | 0.00 | 0.00 | 64 | 1008.3 |
| 20260504043047 | 66 | 0 | 0.0 | 0.0 | 0.00 | 0.00 | 0.00 | 62 | 1008.2 |
| 20260504042147 | 67 | 0 | 0.0 | 0.0 | 0.00 | 0.00 | 0.00 | 61 | 1008.2 |
| 20260504041600 | 67 | 124 | 0.0 | 0.0 | 0.00 | 0.00 | 0.00 | 59 | 1008.5 |
| 20260504041247 | 68 | 0 | 0.0 | 0.0 | 0.00 | 0.00 | 0.00 | 58 | 1008.1 |
| 20260504040347 | 69 | 0 | 0.0 | 0.0 | 0.00 | 0.00 | 0.00 | 57 | 1008.1 |
| 20260504040003 | 69 | 124 | 0.0 | 0.0 | 0.00 | 0.00 | 0.00 | 55 | 1008.3 |
| 20260504035447 | 70 | 0 | 0.0 | 0.0 | 0.00 | 0.00 | 0.00 | 53 | 1007.9 |